Simultaneous Nadir Overpasses (SNOs) Predictions

Prediction of SNOs between GOES-16 and TERRA Satellite Orbit:

Table of predicted SNOs for the next 14.0 days since TLE Epoch: 1/23/2022
Index Date Time (GOES-16) GOES-16 Lat,Lon TERRA Lat,Lon Distance(km) Time Diff (sec)
1 01/24/2022 15:16:54 0.02, -75.21 -0.29, -73.78 162.77 80
2 01/25/2022 03:40:57 -0.02, -75.19 -0.85, -78.97 429.82 80
3 01/27/2022 03:28:44 -0.01, -75.21 -0.16, -76.02 92.51 80
4 01/29/2022 03:13:50 -0.01, -75.22 0.47, -73.07 244.94 80
5 01/29/2022 15:37:45 0.01, -75.25 0.62, -78.23 338.55 80
6 01/31/2022 15:22:51 0.01, -75.27 -0.02, -75.28 3.29 80
7 02/02/2022 15:10:36 0.02, -75.29 -0.60, -72.31 339.17 80
8 02/03/2022 03:34:40 -0.03, -75.28 -0.47, -77.51 252.63 80
9 02/05/2022 03:19:45 -0.03, -75.32 0.12, -74.54 87.91 80
10 02/05/2022 15:41:00 0.03, -75.35 0.97, -79.70 495.06 80
